Regional Weather Roundup
Issued by NWS

Home | Current Version | Previous Version | Graphics & Text | Print | Product List | Glossary On
Versions: 1 2 3 4 5 6 7 8 9 10 11 12 13 14 15 16 17 18 19 20 21 22 23 24 25 26 27 28 29 30 31 32 33 34 35 36 37 38 39 40 41 42 43 44 45 46 47 48 49 50
000
ASUS43 KIND 312109
RWRIN

WEATHER ROUNDUP FOR INDIANA
NATIONAL WEATHER SERVICE INDIANAPOLIS IN
400 PM EST SAT JAN 31 2015

NOTE: "FAIR" INDICATES FEW OR NO CLOUDS BELOW 12,000 FEET WITH NO
SIGNIFICANT WEATHER AND/OR OBSTRUCTIONS TO VISIBILITY.

* - STATION DOES NOT REPORT WEATHER SUCH AS PRECIPITATION OR FOG.

+ - STATION NOT QUALITY CONTROLLED BY THE NATIONAL WEATHER SERVICE.
    USE DATA WITH CAUTION...ESPECIALLY DEWPOINT AND RELATIVE
    HUMIDITY OBSERVATIONS.

INZ001>003-010>013-019-020-312200-
NORTHWEST INDIANA

CITY           SKY/WX    TMP DP  RH WIND       PRES   REMARKS
GARY /AIRPORT/ CLOUDY    39  23  52 SW8       30.18R
KNOX *+        CLOUDY    36  14  41 SW13      30.17F
LA PORTE +     CLOUDY    38  28  69 SW9       30.17F
MICHIGAN CITY+ CLOUDY    36  21  55 SW5       30.18S
MONTICELLO +   CLOUDY    36  28  72 SW10      30.19F
RENSSELAER +   CLOUDY    36  32  87 SW9       30.19S
VALPARAISO     CLOUDY    36  27  69 SW13      30.17S

$$

LMZ046-743>745-312200-
SOUTHERN LAKE MICHIGAN

STATION/POSITION TIME  TEMP WIND        PRES
                       AIR  DIR/SP/G
                 (UTC) (F)  (DEG/KT/KT) (MB)
MICHIGAN CITY    2100   36  200/  7/  8   N/A

$$

INZ004-005-014>016-021>024-312200-
NORTH CENTRAL INDIANA

CITY           SKY/WX    TMP DP  RH WIND       PRES   REMARKS
ELKHART        PTSUNNY   37  21  52 SW6       30.17S
GOSHEN         CLOUDY    35  26  69 SW10      30.17S WCI  27
LOGANSPORT +   CLOUDY    34  28  80 SW12      30.20F WCI  25
PERU/GRISSOM   CLOUDY    36  28  71 SW12      30.19F
ROCHESTER +    CLOUDY    37  30  75 SW9       30.19S
SOUTH BEND     CLOUDY    37  25  61 SW10      30.18S
WARSAW +       CLOUDY    36  25  64 SW8       30.18S

$$

INZ006>009-017-018-025>027-312200-
NORTHEAST INDIANA

CITY           SKY/WX    TMP DP  RH WIND       PRES   REMARKS
ANGOLA *+      SUNNY     36  23  60 SW9       30.16S
AUBURN +       PTSUNNY   36  23  60 SW7G16    30.19S
FORT WAYNE     CLOUDY    35  26  69 SW12      30.20F WCI  27
HUNTINGTON +   CLOUDY    36  22  57 SW7       30.20S

$$

INZ028-029-035-036-043>045-051>053-312200-
WEST CENTRAL INDIANA

CITY           SKY/WX    TMP DP  RH WIND       PRES   REMARKS
CRAWFORDSVL +  CLOUDY    36  20  52 S9        30.22F
GREENCASTLE +  CLOUDY    37  21  52 SW6       30.25S
LAFAYETTE      CLOUDY    37  25  61 SW10      30.21F
TERRE HAUTE    CLOUDY    39  25  57 SW12      30.26F

$$

INZ030>032-037>040-046>048-054>057-064-065-312200-
CENTRAL INDIANA

CITY           SKY/WX    TMP DP  RH WIND       PRES   REMARKS
ANDERSON       MOSUNNY   36  21  55 SW9       30.24F
CP ATTERBURY + CLOUDY    39  21  48 SW5       30.26F
FRANKFORT +    CLOUDY    37  27  66 S12       30.23S
GREENWOOD *+   CLOUDY    39  19  45 SW7       30.25F
INDIANAPOLIS   CLOUDY    36  22  56 SW10      30.24F
-EAGLE CREEK   CLOUDY    37  22  54 SW8       30.23F
KOKOMO *+      CLOUDY    36  27  69 SW13      30.21F
MARION +       CLOUDY    36  25  63 SW13      30.21F
MT COMFORT *+  CLOUDY    37  14  38 SW10      30.24F
SHELBYVILLE    CLOUDY    39  22  50 SW12      30.25F
ZIONSVILLE +   CLOUDY    38  22  53 SW9       30.23F

$$

INZ033-034-041-042-049-050-058-059-312200-
EAST CENTRAL INDIANA

CITY           SKY/WX    TMP DP  RH WIND       PRES   REMARKS
MUNCIE         CLOUDY    36  22  56 SW12G20   30.21F

$$

INZ060-061-067>069-081>083-085>088-312200-
SOUTHWEST INDIANA

CITY           SKY/WX    TMP DP  RH WIND       PRES   REMARKS
EVANSVILLE     CLOUDY    42  24  49 S5        30.30F
HUNTINGBURG *+ CLOUDY    41  25  52 SW9       30.31F
WASHINGTON +   CLOUDY    39  22  49 S8        30.28F

$$

INZ062-063-066-070>080-084-089>092-312200-
SOUTH CENTRAL AND SOUTHEAST INDIANA

CITY           SKY/WX    TMP DP  RH WIND       PRES   REMARKS
BLOOMINGTON    CLOUDY    39  23  52 SW10      30.26F
NORTH VERNON + CLOUDY    39  21  48 S7        30.28F
SEYMOUR +      CLOUDY    43  23  45 SW9       30.28F

$$




USA.gov is the U.S. government's official web portal to all federal, state and local government web resources and services.